Flag for U.S.A. Weather past 2 weeks in Monticello, Kentucky, U.S.A.

Now
46 °F

Clear.


Feels Like: 46 °F
Forecast: 44 / 64 °F
Wind: No wind

Location: London-Corbin Airport-Magee Field

Current Time: Oct 20, 2014 at 12:53:06 AM

Latest Report: Oct 19, 2014 at 10:53 PM


Visibility: 10 mi

Pressure: 30.11 "Hg

Humidity: 86%

Dew point: 42 °F

Location of MonticelloLocation

Historic Weather in Monticello — Graph

°F

Monticello temperature yesterday

Maximum temperature yesterday: 61 °F (at 3:53 PM)
Minimum temperature yesterday: 46 °F (at 9:53 PM)
Average temperature yesterday: 51 °F

Past Weeks' High & Low Weather Summary

 TemperatureHumidityPressure
High79 °F (Oct 13, 2:53 PM)100% (Oct 17, 4:17 AM)30.25 "Hg (Oct 17, 4:17 AM)
Low35 °F (Oct 5, 7:53 AM)32% (Oct 5, 12:53 PM)29.63 "Hg (Oct 14, 12:53 PM)
Average59 °F78%29.95 "Hg
* Reported Oct 4 10:53 PM — Oct 19 10:53 PM, Monticello, Weather by CustomWeather, © 2014

Note: Actual official high and low records may vary slightly from our data, if they occured in-between our weather recording intervals... More about our weather records

Advertising

Monticello weather history for previous 24 hours

 ConditionsComfort  
Time TempWeatherWind HumidityBarometerVisibility
10:53 PM
Oct 19
46 °FClear.No wind86%30.11 "Hg10 mi
9:53 PM46 °FClear.No wind86%30.13 "Hg10 mi
8:53 PM49 °FClear.No wind77%30.13 "Hg10 mi
7:53 PM50 °FSunny.No wind77%30.13 "Hg10 mi
6:53 PM56 °FSunny.No wind58%30.12 "Hg10 mi
5:53 PM61 °FSunny.No wind44%30.12 "Hg10 mi
4:53 PM61 °FSunny.3 mph44%30.13 "Hg10 mi
3:53 PM61 °FSunny.N/A44%30.14 "Hg10 mi
2:53 PM58 °FSunny.3 mph50%30.17 "Hg10 mi
1:53 PM57 °FSunny.5 mph51%30.19 "Hg10 mi
12:53 PM54 °FSunny.6 mph57%30.22 "Hg10 mi
11:53 AM52 °FPartly sunny.3 mph61%30.24 "Hg10 mi
10:53 AM49 °FOvercast.3 mph66%30.25 "Hg10 mi
9:53 AM49 °FOvercast.3 mph71%30.24 "Hg10 mi
8:53 AM48 °FOvercast.3 mph77%30.23 "Hg10 mi
7:53 AM48 °FOvercast.5 mph80%30.21 "Hg10 mi
6:53 AM48 °FOvercast.No wind77%30.20 "Hg10 mi
5:53 AM48 °FOvercast.No wind77%30.18 "Hg10 mi
4:53 AM48 °FOvercast.7 mph77%30.16 "Hg10 mi
3:53 AM48 °FOvercast.9 mph80%30.16 "Hg10 mi
2:53 AM49 °FMostly cloudy.6 mph80%30.14 "Hg10 mi
2:02 AM50 °FOvercast.6 mph77%30.14 "Hg10 mi
1:53 AM50 °FOvercast.7 mph77%30.14 "Hg10 mi
12:53 AM50 °FMostly cloudy.6 mph77%30.11 "Hg10 mi
Weather by CustomWeather, © 2014

See weather overviewHow to use our weather pages